Weather History for Birmingham, AL

Change the Weather History Date:

Friday, August 9, 2013

  Actual Average Record
Temperature  
Mean Temperature 82 °F 81 °F  
Max Temperature 90 °F 91 °F 103 °F (2007)
Min Temperature 73 °F 71 °F 54 °F (1976)
Cooling Degree Days 17 16  
Month to date cooling degree days 134 144  
Year to date cooling degree days 1236 1307  
Since 1 June cooling degree days 971 1025  
Growing Degree Days 32 (Base 50)    
Moisture  
Dew Point 72 °F    
Average Humidity 75    
Maximum Humidity 93    
Minimum Humidity 56    
Precipitation  
Precipitation 0.00 in 0.13 in 2.99 in (1970)
Month to date precipitation 2.86 1.24  
Year to date precipitation 50.83 34.39  
Sea Level Pressure  
Sea Level Pressure 30.05 in    
Wind  
Wind Speed 4 mph (South)    
Max Wind Speed 14 mph    
Max Gust Speed 18 mph    
Visibility 10 miles    
Events Thunderstorm    
T = Trace of Precipitation, MM = Missing Value Source: NWS Daily Summary

Daily Weather History Graph

Daily Weather History Graph

Search for Another Location

Airport:

Trip Planner

Search our weather history database for the weather conditions in past years. The results will help you decide how hot, cold, wet, or windy it might be!

Date:

Astronomy

Aug. 09, 2013 Rise Set
Actual Time 6:05 AM CDT 7:39 PM CDT
Civil Twilight 5:38 AM CDT 8:05 PM CDT
Nautical Twilight 5:06 AM CDT 8:37 PM CDT
Astronomical Twilight 4:32 AM CDT 9:11 PM CDT
Moon 8:39 AM CDT (8/9) 9:01 PM CDT (8/9)
Length of Visible Light 14h 27m
Length of Day
13h 34m
Waxing Crescent, 8% of the Moon is Illuminated
Aug 9
Waxing Crescent
Aug 14
First Quarter
Aug 20
Full
Aug 28
Last Quarter
Sep 5
New

Hourly Weather History & Observations

Time (CDT) Temp. Heat Index Dew Point Humidity Pressure Visibility Wind Dir Wind Speed Gust Speed Precip Events Conditions
12:53 AM 73.9 °F - 71.1 °F 91% 30.02 in 10.0 mi Calm Calm - N/A   Clear
1:53 AM 73.9 °F - 71.1 °F 91% 30.02 in 10.0 mi SE 3.5 mph - N/A   Partly Cloudy
2:53 AM 75.0 °F - 71.1 °F 87% 30.02 in 10.0 mi Calm Calm - N/A   Clear
3:53 AM 73.9 °F - 71.1 °F 91% 30.01 in 10.0 mi Calm Calm - N/A   Clear
4:53 AM 73.9 °F - 71.1 °F 91% 30.01 in 10.0 mi Calm Calm - N/A   Clear
5:53 AM 75.0 °F - 71.1 °F 87% 30.02 in 10.0 mi South 3.5 mph - N/A   Clear
6:53 AM 75.0 °F - 72.0 °F 90% 30.04 in 8.0 mi Calm Calm - N/A   Clear
7:53 AM 77.0 °F - 72.0 °F 84% 30.06 in 10.0 mi SSE 4.6 mph - N/A   Scattered Clouds
8:49 AM 78.8 °F - 73.4 °F 83% 30.09 in 10.0 mi SSE 8.1 mph - N/A   Mostly Cloudy
8:53 AM 78.1 °F - 73.0 °F 84% 30.07 in 10.0 mi SSE 6.9 mph - N/A   Mostly Cloudy
9:47 AM 80.6 °F 85.4 °F 73.4 °F 79% 30.10 in 10.0 mi South 5.8 mph - N/A   Scattered Clouds
9:53 AM 81.0 °F 85.8 °F 73.0 °F 77% 30.08 in 10.0 mi South 3.5 mph - N/A   Scattered Clouds
10:53 AM 82.9 °F 88.0 °F 72.0 °F 69% 30.08 in 10.0 mi SW 6.9 mph - N/A   Scattered Clouds
11:53 AM 86.0 °F 93.0 °F 73.0 °F 65% 30.07 in 10.0 mi SSW 6.9 mph - N/A   Partly Cloudy
12:53 PM 87.1 °F 93.6 °F 72.0 °F 61% 30.04 in 10.0 mi SE 5.8 mph - N/A   Partly Cloudy
1:53 PM 89.1 °F 97.0 °F 73.0 °F 59% 30.02 in 10.0 mi ESE 6.9 mph - N/A   Partly Cloudy
2:53 PM 90.0 °F 96.9 °F 72.0 °F 55% 30.01 in 10.0 mi Variable 6.9 mph - N/A   Scattered Clouds
3:53 PM 88.0 °F 94.7 °F 72.0 °F 59% 30.01 in 10.0 mi ESE 8.1 mph - N/A   Mostly Cloudy
4:01 PM 87.8 °F 93.8 °F 71.6 °F 58% 30.03 in 10.0 mi SE 5.8 mph - N/A Thunderstorm Thunderstorm
4:53 PM 84.0 °F 89.0 °F 71.1 °F 65% 30.02 in 10.0 mi NNW 10.4 mph - N/A Thunderstorm Thunderstorm
5:53 PM 82.0 °F 86.3 °F 71.1 °F 69% 30.01 in 10.0 mi WSW 9.2 mph - N/A Thunderstorm Thunderstorm
6:18 PM 84.2 °F 89.6 °F 71.6 °F 66% 30.05 in 10.0 mi SSW 9.2 mph - N/A   Scattered Clouds
6:53 PM 82.9 °F 88.0 °F 72.0 °F 69% 30.01 in 10.0 mi South 5.8 mph - N/A   Scattered Clouds
7:53 PM 82.0 °F 85.9 °F 70.0 °F 67% 30.06 in 10.0 mi SW 4.6 mph - N/A   Scattered Clouds
8:53 PM 80.1 °F 83.6 °F 71.1 °F 74% 30.07 in 10.0 mi South 3.5 mph - N/A   Clear
9:53 PM 80.1 °F 83.6 °F 71.1 °F 74% 30.08 in 10.0 mi South 4.6 mph - N/A   Clear
10:53 PM 80.1 °F 83.6 °F 71.1 °F 74% 30.08 in 10.0 mi SW 3.5 mph - N/A   Clear
11:53 PM 78.1 °F - 72.0 °F 81% 30.08 in 10.0 mi Calm Calm - N/A   Clear